Year,Month,Day,Hour,Minute,Value (Times are PST for temperature in C)
2006,05,03,00,00,4.70
2006,05,03,00,01,4.70
2006,05,03,00,02,4.70
2006,05,03,00,03,4.70
2006,05,03,00,04,4.60
2006,05,03,00,05,4.60
2006,05,03,00,06,4.60
2006,05,03,00,07,4.60
2006,05,03,00,08,4.60
2006,05,03,00,09,4.60
2006,05,03,00,10,4.60
2006,05,03,00,11,4.60
2006,05,03,00,12,4.60
2006,05,03,00,13,4.60
2006,05,03,00,14,4.60
2006,05,03,00,15,4.50
2006,05,03,00,16,4.50
2006,05,03,00,17,4.50
2006,05,03,00,18,4.50
2006,05,03,00,19,4.50
2006,05,03,00,20,4.50
2006,05,03,00,21,4.50
2006,05,03,00,22,4.50
2006,05,03,00,23,4.50
2006,05,03,00,24,4.50
2006,05,03,00,25,4.50
2006,05,03,00,26,4.40
2006,05,03,00,27,4.40
2006,05,03,00,28,4.40
2006,05,03,00,29,4.40
2006,05,03,00,30,4.40
2006,05,03,00,31,4.40
2006,05,03,00,32,4.40
2006,05,03,00,33,4.40
2006,05,03,00,34,4.40
2006,05,03,00,35,4.40
2006,05,03,00,36,4.40
2006,05,03,00,37,4.40
2006,05,03,00,38,4.40
2006,05,03,00,39,4.40
2006,05,03,00,40,4.40
2006,05,03,00,41,4.30
2006,05,03,00,42,4.30
2006,05,03,00,43,4.30
2006,05,03,00,44,4.30
2006,05,03,00,45,4.30
2006,05,03,00,46,4.30
2006,05,03,00,47,4.30
2006,05,03,00,48,4.30
2006,05,03,00,49,4.30
2006,05,03,00,50,4.20
2006,05,03,00,51,4.20
2006,05,03,00,52,4.20
2006,05,03,00,53,4.20
2006,05,03,00,54,4.20
2006,05,03,00,55,4.20
2006,05,03,00,56,4.20
2006,05,03,00,57,4.20
2006,05,03,00,58,4.20
2006,05,03,00,59,4.20
2006,05,03,01,00,4.20
2006,05,03,01,01,4.20
2006,05,03,01,02,4.20
2006,05,03,01,03,4.20
2006,05,03,01,04,4.10
2006,05,03,01,05,4.10
2006,05,03,01,06,4.10
2006,05,03,01,07,4.10
2006,05,03,01,08,4.10
2006,05,03,01,09,4.10
2006,05,03,01,10,4.10
2006,05,03,01,11,4.00
2006,05,03,01,12,4.00
2006,05,03,01,13,4.00
2006,05,03,01,14,4.00
2006,05,03,01,15,4.00
2006,05,03,01,16,4.00
2006,05,03,01,17,3.90
2006,05,03,01,18,3.90
2006,05,03,01,19,3.90
2006,05,03,01,20,3.90
2006,05,03,01,21,3.90
2006,05,03,01,22,3.80
2006,05,03,01,23,3.80
2006,05,03,01,24,3.80
2006,05,03,01,25,3.80
2006,05,03,01,26,3.80
2006,05,03,01,27,3.80
2006,05,03,01,28,3.80
2006,05,03,01,29,3.80
2006,05,03,01,30,3.80
2006,05,03,01,31,3.80
2006,05,03,01,32,3.80
2006,05,03,01,33,3.80
2006,05,03,01,34,3.80
2006,05,03,01,35,3.80
2006,05,03,01,36,3.80
2006,05,03,01,37,3.70
2006,05,03,01,38,3.70
2006,05,03,01,39,3.70
2006,05,03,01,40,3.70
2006,05,03,01,41,3.70
2006,05,03,01,42,3.60
2006,05,03,01,43,3.60
2006,05,03,01,44,3.60
2006,05,03,01,45,3.60
2006,05,03,01,46,3.60
2006,05,03,01,47,3.60
2006,05,03,01,48,3.50
2006,05,03,01,49,3.50
2006,05,03,01,50,3.50
2006,05,03,01,51,3.50
2006,05,03,01,52,3.50
2006,05,03,01,53,3.50
2006,05,03,01,54,3.50
2006,05,03,01,55,3.40
2006,05,03,01,56,3.40
2006,05,03,01,57,3.40
2006,05,03,01,58,3.40
2006,05,03,01,59,3.40
2006,05,03,02,00,3.40
2006,05,03,02,01,3.30
2006,05,03,02,02,3.30
2006,05,03,02,03,3.30
2006,05,03,02,04,3.30
2006,05,03,02,05,3.30
2006,05,03,02,06,3.30
2006,05,03,02,07,3.30
2006,05,03,02,08,3.30
2006,05,03,02,09,3.30
2006,05,03,02,10,3.30
2006,05,03,02,11,3.30
2006,05,03,02,12,3.30
2006,05,03,02,13,3.30
2006,05,03,02,14,3.20
2006,05,03,02,15,3.20
2006,05,03,02,16,3.20
2006,05,03,02,17,3.20
2006,05,03,02,18,3.20
2006,05,03,02,19,3.20
2006,05,03,02,20,3.20
2006,05,03,02,21,3.20
2006,05,03,02,22,3.20
2006,05,03,02,23,3.10
2006,05,03,02,24,3.10
2006,05,03,02,25,3.10
2006,05,03,02,26,3.10
2006,05,03,02,27,3.10
2006,05,03,02,28,3.10
2006,05,03,02,29,3.10
2006,05,03,02,30,3.10
2006,05,03,02,31,3.10
2006,05,03,02,32,3.10
2006,05,03,02,33,3.10
2006,05,03,02,34,3.10
2006,05,03,02,35,3.10
2006,05,03,02,36,3.10
2006,05,03,02,37,3.10
2006,05,03,02,38,3.10
2006,05,03,02,39,3.10
2006,05,03,02,40,3.10
2006,05,03,02,41,3.10
2006,05,03,02,42,3.10
2006,05,03,02,43,3.10
2006,05,03,02,44,3.10
2006,05,03,02,45,3.10
2006,05,03,02,46,3.10
2006,05,03,02,47,3.10
2006,05,03,02,48,3.10
2006,05,03,02,49,3.00
2006,05,03,02,50,2.90
2006,05,03,02,51,2.90
2006,05,03,02,52,2.90
2006,05,03,02,53,2.90
2006,05,03,02,54,2.90
2006,05,03,02,55,2.90
2006,05,03,02,56,2.90
2006,05,03,02,57,2.90
2006,05,03,02,58,2.90
2006,05,03,02,59,2.90
2006,05,03,03,00,2.90
2006,05,03,03,01,2.90
2006,05,03,03,02,2.90
2006,05,03,03,03,2.90
2006,05,03,03,04,2.90
2006,05,03,03,05,2.90
2006,05,03,03,06,2.90
2006,05,03,03,07,2.80
2006,05,03,03,08,2.80
2006,05,03,03,09,2.80
2006,05,03,03,10,2.80
2006,05,03,03,11,2.80
2006,05,03,03,12,2.80
2006,05,03,03,13,2.80
2006,05,03,03,14,2.80
2006,05,03,03,15,2.80
2006,05,03,03,16,2.70
2006,05,03,03,17,2.70
2006,05,03,03,18,2.70
2006,05,03,03,19,2.70
2006,05,03,03,20,2.70
2006,05,03,03,21,2.70
2006,05,03,03,22,2.70
2006,05,03,03,23,2.70
2006,05,03,03,24,2.70
2006,05,03,03,25,2.70
2006,05,03,03,26,2.60
2006,05,03,03,27,2.60
2006,05,03,03,28,2.60
2006,05,03,03,29,2.60
2006,05,03,03,30,2.60
2006,05,03,03,31,2.60
2006,05,03,03,32,2.60
2006,05,03,03,33,2.60
2006,05,03,03,34,2.50
2006,05,03,03,35,2.50
2006,05,03,03,36,2.50
2006,05,03,03,37,2.50
2006,05,03,03,38,2.50
2006,05,03,03,39,2.50
2006,05,03,03,40,2.50
2006,05,03,03,41,2.50
2006,05,03,03,42,2.50
2006,05,03,03,43,2.50
2006,05,03,03,44,2.50
2006,05,03,03,45,2.50
2006,05,03,03,46,2.50
2006,05,03,03,47,2.40
2006,05,03,03,48,2.40
2006,05,03,03,49,2.40
2006,05,03,03,50,2.40
2006,05,03,03,51,2.40
2006,05,03,03,52,2.40
2006,05,03,03,53,2.40
2006,05,03,03,54,2.40
2006,05,03,03,55,2.40
2006,05,03,03,56,2.40
2006,05,03,03,57,2.40
2006,05,03,03,58,2.40
2006,05,03,03,59,2.40
2006,05,03,04,00,2.40
2006,05,03,04,01,2.40
2006,05,03,04,02,2.40
2006,05,03,04,03,2.40
2006,05,03,04,04,2.40
2006,05,03,04,05,2.40
2006,05,03,04,06,2.40
2006,05,03,04,07,2.40
2006,05,03,04,08,2.40
2006,05,03,04,09,2.40
2006,05,03,04,10,2.40
2006,05,03,04,11,2.40
2006,05,03,04,12,2.40
2006,05,03,04,13,2.30
2006,05,03,04,14,2.30
2006,05,03,04,15,2.30
2006,05,03,04,16,2.30
2006,05,03,04,17,2.30
2006,05,03,04,18,2.30
2006,05,03,04,19,2.30
2006,05,03,04,20,2.30
2006,05,03,04,21,2.30
2006,05,03,04,22,2.30
2006,05,03,04,23,2.30
2006,05,03,04,24,2.20
2006,05,03,04,25,2.20
2006,05,03,04,26,2.20
2006,05,03,04,27,2.20
2006,05,03,04,28,2.20
2006,05,03,04,29,2.20
2006,05,03,04,30,2.20
2006,05,03,04,31,2.20
2006,05,03,04,32,2.20
2006,05,03,04,33,2.20
2006,05,03,04,34,2.20
2006,05,03,04,35,2.20
2006,05,03,04,36,2.20
2006,05,03,04,37,2.20
2006,05,03,04,38,2.20
2006,05,03,04,39,2.20
2006,05,03,04,40,2.20
2006,05,03,04,41,2.20
2006,05,03,04,42,2.20
2006,05,03,04,43,2.20
2006,05,03,04,44,2.20
2006,05,03,04,45,2.20
2006,05,03,04,46,2.20
2006,05,03,04,47,2.20
2006,05,03,04,48,2.20
2006,05,03,04,49,2.20
2006,05,03,04,50,2.20
2006,05,03,04,51,2.20
2006,05,03,04,52,2.20
2006,05,03,04,53,2.10
2006,05,03,04,54,2.10
2006,05,03,04,55,2.10
2006,05,03,04,56,2.10
2006,05,03,04,57,2.10
2006,05,03,04,58,2.10
2006,05,03,04,59,2.10
2006,05,03,05,00,2.20
2006,05,03,05,01,2.20
2006,05,03,05,02,2.20
2006,05,03,05,03,2.20
2006,05,03,05,04,2.20
2006,05,03,05,05,2.20
2006,05,03,05,06,2.20
2006,05,03,05,07,2.20
2006,05,03,05,08,2.20
2006,05,03,05,09,2.10
2006,05,03,05,10,2.10
2006,05,03,05,11,2.10
2006,05,03,05,12,2.10
2006,05,03,05,13,2.10
2006,05,03,05,14,2.10
2006,05,03,05,15,2.10
2006,05,03,05,16,2.10
2006,05,03,05,17,2.10
2006,05,03,05,18,2.10
2006,05,03,05,19,2.10
2006,05,03,05,20,2.10
2006,05,03,05,21,2.10
2006,05,03,05,22,2.00
2006,05,03,05,23,2.00
2006,05,03,05,24,2.00
2006,05,03,05,25,2.00
2006,05,03,05,26,2.00
2006,05,03,05,27,2.00
2006,05,03,05,28,2.00
2006,05,03,05,29,2.00
2006,05,03,05,30,2.00
2006,05,03,05,31,2.00
2006,05,03,05,32,2.00
2006,05,03,05,33,2.00
2006,05,03,05,34,2.00
2006,05,03,05,35,2.00
2006,05,03,05,36,1.90
2006,05,03,05,37,1.90
2006,05,03,05,38,1.90
2006,05,03,05,39,1.90
2006,05,03,05,40,1.90
2006,05,03,05,41,1.90
2006,05,03,05,42,1.90
2006,05,03,05,43,1.80
2006,05,03,05,44,1.80
2006,05,03,05,45,1.80
2006,05,03,05,46,1.80
2006,05,03,05,47,1.80
2006,05,03,05,48,1.80
2006,05,03,05,49,1.80
2006,05,03,05,50,1.80
2006,05,03,05,51,1.80
2006,05,03,05,52,1.80
2006,05,03,05,53,1.80
2006,05,03,05,54,1.80
2006,05,03,05,55,1.80
2006,05,03,05,56,1.80
2006,05,03,05,57,1.80
2006,05,03,05,58,1.80
2006,05,03,05,59,1.80
2006,05,03,06,00,1.80
2006,05,03,06,01,1.80
2006,05,03,06,02,1.80
2006,05,03,06,03,1.80
2006,05,03,06,04,1.80
2006,05,03,06,05,1.80
2006,05,03,06,06,1.80
2006,05,03,06,07,1.80
2006,05,03,06,08,1.80
2006,05,03,06,09,1.80
2006,05,03,06,10,1.80
2006,05,03,06,11,1.80
2006,05,03,06,12,1.80
2006,05,03,06,13,1.80
2006,05,03,06,14,1.80
2006,05,03,06,15,1.80
2006,05,03,06,16,1.80
2006,05,03,06,17,1.80
2006,05,03,06,18,1.80
2006,05,03,06,19,1.80
2006,05,03,06,20,1.90
2006,05,03,06,21,1.90
2006,05,03,06,22,1.90
2006,05,03,06,23,1.90
2006,05,03,06,24,1.90
2006,05,03,06,25,1.90
2006,05,03,06,26,2.00
2006,05,03,06,27,2.00
2006,05,03,06,28,2.00
2006,05,03,06,29,2.10
2006,05,03,06,30,2.10
2006,05,03,06,31,2.20
2006,05,03,06,32,2.20
2006,05,03,06,33,2.20
2006,05,03,06,34,2.20
2006,05,03,06,35,2.20
2006,05,03,06,36,2.20
2006,05,03,06,37,2.20
2006,05,03,06,38,2.30
2006,05,03,06,39,2.30
2006,05,03,06,40,2.30
2006,05,03,06,41,2.40
2006,05,03,06,42,2.40
2006,05,03,06,43,2.50
2006,05,03,06,44,2.50
2006,05,03,06,45,2.50
2006,05,03,06,46,2.60
2006,05,03,06,47,2.70
2006,05,03,06,48,2.70
2006,05,03,06,49,2.70
2006,05,03,06,50,2.80
2006,05,03,06,51,2.80
2006,05,03,06,52,2.90
2006,05,03,06,53,2.90
2006,05,03,06,54,3.10
2006,05,03,06,55,3.10
2006,05,03,06,56,3.20
2006,05,03,06,57,3.20
2006,05,03,06,58,3.30
2006,05,03,06,59,3.40
2006,05,03,07,00,3.50
2006,05,03,07,01,3.50
2006,05,03,07,02,3.60
2006,05,03,07,03,3.70
2006,05,03,07,04,3.80
2006,05,03,07,05,3.80
2006,05,03,07,06,3.90
2006,05,03,07,07,3.90
2006,05,03,07,08,4.00
2006,05,03,07,09,4.00
2006,05,03,07,10,4.10
2006,05,03,07,11,4.20
2006,05,03,07,12,4.20
2006,05,03,07,13,4.30
2006,05,03,07,14,4.40
2006,05,03,07,15,4.50
2006,05,03,07,16,4.60
2006,05,03,07,17,4.70
2006,05,03,07,18,4.70
2006,05,03,07,19,4.80
2006,05,03,07,20,5.00
2006,05,03,07,21,5.10
2006,05,03,07,22,5.10
2006,05,03,07,23,5.20
2006,05,03,07,24,5.30
2006,05,03,07,25,5.40
2006,05,03,07,26,5.40
2006,05,03,07,27,5.50
2006,05,03,07,28,5.50
2006,05,03,07,29,5.60
2006,05,03,07,30,5.70
2006,05,03,07,31,5.70
2006,05,03,07,32,5.80
2006,05,03,07,33,5.90
2006,05,03,07,34,6.00
2006,05,03,07,35,6.10
2006,05,03,07,36,6.20
2006,05,03,07,37,6.30
2006,05,03,07,38,6.40
2006,05,03,07,39,6.50
2006,05,03,07,40,6.60
2006,05,03,07,41,6.70
2006,05,03,07,42,6.80
2006,05,03,07,43,6.90
2006,05,03,07,44,7.00
2006,05,03,07,45,7.00
2006,05,03,07,46,7.20
2006,05,03,07,47,7.30
2006,05,03,07,48,7.50
2006,05,03,07,49,7.60
2006,05,03,07,50,7.80
2006,05,03,07,51,7.90
2006,05,03,07,52,8.00
2006,05,03,07,53,8.10
2006,05,03,07,54,8.20
2006,05,03,07,55,8.40
2006,05,03,07,56,8.50
2006,05,03,07,57,8.70
2006,05,03,07,58,9.00
2006,05,03,07,59,9.10
2006,05,03,08,00,9.30
2006,05,03,08,01,9.50
2006,05,03,08,02,9.60
2006,05,03,08,03,9.80
2006,05,03,08,04,10.00
2006,05,03,08,05,10.10
2006,05,03,08,06,10.20
2006,05,03,08,07,10.30
2006,05,03,08,08,10.40
2006,05,03,08,09,10.50
2006,05,03,08,10,10.60
2006,05,03,08,11,10.80
2006,05,03,08,12,10.90
2006,05,03,08,13,11.00
2006,05,03,08,14,11.10
2006,05,03,08,15,11.20
2006,05,03,08,16,11.30
2006,05,03,08,17,11.40
2006,05,03,08,18,11.50
2006,05,03,08,19,11.60
2006,05,03,08,20,11.70
2006,05,03,08,21,11.70
2006,05,03,08,22,11.80
2006,05,03,08,23,11.80
2006,05,03,08,24,11.90
2006,05,03,08,25,12.00
2006,05,03,08,26,12.00
2006,05,03,08,27,12.10
2006,05,03,08,28,12.10
2006,05,03,08,29,12.20
2006,05,03,08,30,12.20
2006,05,03,08,31,12.20
2006,05,03,08,32,12.30
2006,05,03,08,33,12.30
2006,05,03,08,34,12.30
2006,05,03,08,35,12.40
2006,05,03,08,36,12.50
2006,05,03,08,37,12.50
2006,05,03,08,38,12.50
2006,05,03,08,39,12.60
2006,05,03,08,40,12.60
2006,05,03,08,41,12.70
2006,05,03,08,42,12.80
2006,05,03,08,43,12.80
2006,05,03,08,44,12.90
2006,05,03,08,45,12.90
2006,05,03,08,46,12.90
2006,05,03,08,47,12.90
2006,05,03,08,48,12.90
2006,05,03,08,49,13.00
2006,05,03,08,50,13.00
2006,05,03,08,51,12.80
2006,05,03,08,52,12.70
2006,05,03,08,53,12.70
2006,05,03,08,54,12.80
2006,05,03,08,55,12.80
2006,05,03,08,56,12.80
2006,05,03,08,57,12.90
2006,05,03,08,58,12.90
2006,05,03,08,59,13.00
2006,05,03,09,00,13.00
2006,05,03,09,01,13.10
2006,05,03,09,02,13.10
2006,05,03,09,03,13.20
2006,05,03,09,04,13.30
2006,05,03,09,05,13.30
2006,05,03,09,06,13.40
2006,05,03,09,07,13.40
2006,05,03,09,08,13.50
2006,05,03,09,09,13.50
2006,05,03,09,10,13.50
2006,05,03,09,11,13.60
2006,05,03,09,12,13.70
2006,05,03,09,13,13.70
2006,05,03,09,14,13.70
2006,05,03,09,15,13.70
2006,05,03,09,16,13.80
2006,05,03,09,17,13.90
2006,05,03,09,18,13.90
2006,05,03,09,19,13.90
2006,05,03,09,20,14.00
2006,05,03,09,21,14.10
2006,05,03,09,22,14.20
2006,05,03,09,23,14.20
2006,05,03,09,24,14.20
2006,05,03,09,25,14.20
2006,05,03,09,26,14.30
2006,05,03,09,27,14.30
2006,05,03,09,28,14.30
2006,05,03,09,29,14.30
2006,05,03,09,30,14.40
2006,05,03,09,31,14.40
2006,05,03,09,32,14.40
2006,05,03,09,33,14.50
2006,05,03,09,34,14.50
2006,05,03,09,35,14.50
2006,05,03,09,36,14.50
2006,05,03,09,37,14.60
2006,05,03,09,38,14.60
2006,05,03,09,39,14.60
2006,05,03,09,40,14.60
2006,05,03,09,41,14.70
2006,05,03,09,42,14.70
2006,05,03,09,43,14.70
2006,05,03,09,44,14.80
2006,05,03,09,45,14.80
2006,05,03,09,46,14.80
2006,05,03,09,47,14.80
2006,05,03,09,48,14.80
2006,05,03,09,49,14.90
2006,05,03,09,50,14.90
2006,05,03,09,51,14.90
2006,05,03,09,52,14.90
2006,05,03,09,53,14.90
2006,05,03,09,54,14.90
2006,05,03,09,55,14.90
2006,05,03,09,56,15.00
2006,05,03,09,57,15.10
2006,05,03,09,58,15.10
2006,05,03,09,59,15.10
2006,05,03,10,00,15.10
2006,05,03,10,01,15.10
2006,05,03,10,02,15.10
2006,05,03,10,03,15.10
2006,05,03,10,04,15.20
2006,05,03,10,05,15.20
2006,05,03,10,06,15.10
2006,05,03,10,07,15.10
2006,05,03,10,08,15.10
2006,05,03,10,09,15.00
2006,05,03,10,10,15.00
2006,05,03,10,11,15.00
2006,05,03,10,12,15.00
2006,05,03,10,13,15.00
2006,05,03,10,14,15.00
2006,05,03,10,15,15.00
2006,05,03,10,16,15.00
2006,05,03,10,17,15.00
2006,05,03,10,18,14.90
2006,05,03,10,19,14.90
2006,05,03,10,20,14.90
2006,05,03,10,21,14.90
2006,05,03,10,22,15.00
2006,05,03,10,23,15.10
2006,05,03,10,24,15.30
2006,05,03,10,25,15.40
2006,05,03,10,26,15.50
2006,05,03,10,27,15.50
2006,05,03,10,28,15.60
2006,05,03,10,29,15.70
2006,05,03,10,30,15.70
2006,05,03,10,31,15.80
2006,05,03,10,32,15.80
2006,05,03,10,33,15.70
2006,05,03,10,34,15.60
2006,05,03,10,35,15.50
2006,05,03,10,36,15.50
2006,05,03,10,37,15.50
2006,05,03,10,38,15.50
2006,05,03,10,39,15.50
2006,05,03,10,40,15.60
2006,05,03,10,41,15.80
2006,05,03,10,42,15.80
2006,05,03,10,43,15.80
2006,05,03,10,44,15.80
2006,05,03,10,45,15.80
2006,05,03,10,46,15.70
2006,05,03,10,47,15.40
2006,05,03,10,48,15.10
2006,05,03,10,49,14.80
2006,05,03,10,50,14.60
2006,05,03,10,51,14.60
2006,05,03,10,52,14.60
2006,05,03,10,53,14.70
2006,05,03,10,54,14.80
2006,05,03,10,55,14.60
2006,05,03,10,56,14.50
2006,05,03,10,57,14.30
2006,05,03,10,58,14.30
2006,05,03,10,59,14.30
2006,05,03,11,00,14.40
2006,05,03,11,01,14.60
2006,05,03,11,02,14.70
2006,05,03,11,03,14.80
2006,05,03,11,04,14.80
2006,05,03,11,05,14.70
2006,05,03,11,06,14.40
2006,05,03,11,07,14.30
2006,05,03,11,08,14.30
2006,05,03,11,09,14.30
2006,05,03,11,10,14.50
2006,05,03,11,11,14.70
2006,05,03,11,12,15.00
2006,05,03,11,13,15.20
2006,05,03,11,14,15.40
2006,05,03,11,15,15.50
2006,05,03,11,16,15.60
2006,05,03,11,17,15.50
2006,05,03,11,18,15.50
2006,05,03,11,19,15.50
2006,05,03,11,20,15.50
2006,05,03,11,21,15.60
2006,05,03,11,22,15.70
2006,05,03,11,23,15.80
2006,05,03,11,24,15.80
2006,05,03,11,25,15.80
2006,05,03,11,26,15.70
2006,05,03,11,27,15.70
2006,05,03,11,28,15.80
2006,05,03,11,29,15.80
2006,05,03,11,30,15.80
2006,05,03,11,31,15.80
2006,05,03,11,32,15.90
2006,05,03,11,33,15.90
2006,05,03,11,34,15.90
2006,05,03,11,35,15.90
2006,05,03,11,36,15.90
2006,05,03,11,37,15.80
2006,05,03,11,38,15.90
2006,05,03,11,39,15.90
2006,05,03,11,40,16.10
2006,05,03,11,41,15.90
2006,05,03,11,42,15.80
2006,05,03,11,43,15.80
2006,05,03,11,44,16.00
2006,05,03,11,45,15.90
2006,05,03,11,46,15.70
2006,05,03,11,47,15.70
2006,05,03,11,48,15.70
2006,05,03,11,49,15.80
2006,05,03,11,50,15.80
2006,05,03,11,51,15.80
2006,05,03,11,52,15.60
2006,05,03,11,53,15.50
2006,05,03,11,54,15.30
2006,05,03,11,55,15.20
2006,05,03,11,56,15.10
2006,05,03,11,57,15.00
2006,05,03,11,58,14.90
2006,05,03,11,59,14.90
2006,05,03,12,00,14.90
2006,05,03,12,01,15.00
2006,05,03,12,02,15.00
2006,05,03,12,03,15.00
2006,05,03,12,04,15.10
2006,05,03,12,05,15.20
2006,05,03,12,06,15.30
2006,05,03,12,07,15.40
2006,05,03,12,08,15.50
2006,05,03,12,09,15.70
2006,05,03,12,10,15.90
2006,05,03,12,11,16.10
2006,05,03,12,12,16.20
2006,05,03,12,13,16.40
2006,05,03,12,14,16.50
2006,05,03,12,15,16.60
2006,05,03,12,16,16.70
2006,05,03,12,17,16.70
2006,05,03,12,18,16.80
2006,05,03,12,19,16.90
2006,05,03,12,20,16.90
2006,05,03,12,21,16.80
2006,05,03,12,22,16.80
2006,05,03,12,23,16.90
2006,05,03,12,24,16.90
2006,05,03,12,25,16.90
2006,05,03,12,26,16.90
2006,05,03,12,27,17.00
2006,05,03,12,28,17.00
2006,05,03,12,29,17.00
2006,05,03,12,30,17.00
2006,05,03,12,31,17.00
2006,05,03,12,32,17.00
2006,05,03,12,33,16.90
2006,05,03,12,34,16.70
2006,05,03,12,35,16.70
2006,05,03,12,36,16.70
2006,05,03,12,37,16.70
2006,05,03,12,38,16.60
2006,05,03,12,39,16.70
2006,05,03,12,40,16.70
2006,05,03,12,41,16.70
2006,05,03,12,42,16.70
2006,05,03,12,43,16.70
2006,05,03,12,44,16.90
2006,05,03,12,45,17.00
2006,05,03,12,46,17.10
2006,05,03,12,47,17.20
2006,05,03,12,48,17.30
2006,05,03,12,49,17.30
2006,05,03,12,50,17.30
2006,05,03,12,51,17.30
2006,05,03,12,52,17.30
2006,05,03,12,53,17.30
2006,05,03,12,54,17.20
2006,05,03,12,55,17.30
2006,05,03,12,56,17.30
2006,05,03,12,57,17.30
2006,05,03,12,58,17.30
2006,05,03,12,59,17.30
2006,05,03,13,00,17.30
2006,05,03,13,01,17.40
2006,05,03,13,02,17.40
2006,05,03,13,03,17.40
2006,05,03,13,04,17.40
2006,05,03,13,05,17.40
2006,05,03,13,06,17.30
2006,05,03,13,07,17.20
2006,05,03,13,08,17.00
2006,05,03,13,09,17.00
2006,05,03,13,10,17.00
2006,05,03,13,11,17.00
2006,05,03,13,12,17.00
2006,05,03,13,13,17.00
2006,05,03,13,14,17.00
2006,05,03,13,15,17.00
2006,05,03,13,16,16.90
2006,05,03,13,17,16.80
2006,05,03,13,18,16.90
2006,05,03,13,19,17.00
2006,05,03,13,20,17.00
2006,05,03,13,21,17.00
2006,05,03,13,22,17.10
2006,05,03,13,23,17.20
2006,05,03,13,24,17.30
2006,05,03,13,25,17.30
2006,05,03,13,26,17.40
2006,05,03,13,27,17.50
2006,05,03,13,28,17.60
2006,05,03,13,29,17.80
2006,05,03,13,30,17.80
2006,05,03,13,31,17.70
2006,05,03,13,32,17.60
2006,05,03,13,33,17.60
2006,05,03,13,34,17.60
2006,05,03,13,35,17.70
2006,05,03,13,36,17.80
2006,05,03,13,37,17.80
2006,05,03,13,38,17.70
2006,05,03,13,39,17.60
2006,05,03,13,40,17.40
2006,05,03,13,41,17.30
2006,05,03,13,42,17.30
2006,05,03,13,43,17.30
2006,05,03,13,44,17.40
2006,05,03,13,45,17.60
2006,05,03,13,46,17.80
2006,05,03,13,47,18.00
2006,05,03,13,48,18.20
2006,05,03,13,49,18.40
2006,05,03,13,50,18.60
2006,05,03,13,51,18.70
2006,05,03,13,52,18.80
2006,05,03,13,53,18.90
2006,05,03,13,54,18.90
2006,05,03,13,55,18.90
2006,05,03,13,56,18.80
2006,05,03,13,57,18.80
2006,05,03,13,58,18.80
2006,05,03,13,59,18.70
2006,05,03,14,00,18.70
2006,05,03,14,01,18.70
2006,05,03,14,02,18.60
2006,05,03,14,03,18.50
2006,05,03,14,04,18.40
2006,05,03,14,05,18.40
2006,05,03,14,06,18.30
2006,05,03,14,07,18.20
2006,05,03,14,08,18.20
2006,05,03,14,09,18.30
2006,05,03,14,10,18.30
2006,05,03,14,11,18.20
2006,05,03,14,12,18.20
2006,05,03,14,13,18.10
2006,05,03,14,14,18.10
2006,05,03,14,15,18.10
2006,05,03,14,16,18.20
2006,05,03,14,17,18.30
2006,05,03,14,18,18.40
2006,05,03,14,19,18.40
2006,05,03,14,20,18.20
2006,05,03,14,21,18.20
2006,05,03,14,22,18.20
2006,05,03,14,23,18.00
2006,05,03,14,24,17.90
2006,05,03,14,25,17.90
2006,05,03,14,26,18.00
2006,05,03,14,27,18.10
2006,05,03,14,28,18.00
2006,05,03,14,29,18.00
2006,05,03,14,30,18.10
2006,05,03,14,31,18.20
2006,05,03,14,32,18.40
2006,05,03,14,33,18.50
2006,05,03,14,34,18.60
2006,05,03,14,35,18.60
2006,05,03,14,36,18.60
2006,05,03,14,37,18.70
2006,05,03,14,38,18.60
2006,05,03,14,39,18.60
2006,05,03,14,40,18.60
2006,05,03,14,41,18.60
2006,05,03,14,42,18.60
2006,05,03,14,43,18.60
2006,05,03,14,44,18.60
2006,05,03,14,45,18.50
2006,05,03,14,46,18.40
2006,05,03,14,47,18.30
2006,05,03,14,48,18.20
2006,05,03,14,49,18.20
2006,05,03,14,50,18.10
2006,05,03,14,51,17.90
2006,05,03,14,52,17.90
2006,05,03,14,53,17.90
2006,05,03,14,54,17.90
2006,05,03,14,55,17.80
2006,05,03,14,56,17.70
2006,05,03,14,57,17.70
2006,05,03,14,58,17.60
2006,05,03,14,59,17.60
2006,05,03,15,00,17.60
2006,05,03,15,01,17.60
2006,05,03,15,02,17.50
2006,05,03,15,03,17.40
2006,05,03,15,04,17.40
2006,05,03,15,05,17.50
2006,05,03,15,06,17.50
2006,05,03,15,07,17.50
2006,05,03,15,08,17.50
2006,05,03,15,09,17.50
2006,05,03,15,10,17.50
2006,05,03,15,11,17.40
2006,05,03,15,12,17.30
2006,05,03,15,13,17.10
2006,05,03,15,14,16.90
2006,05,03,15,15,17.00
2006,05,03,15,16,17.10
2006,05,03,15,17,17.20
2006,05,03,15,18,17.30
2006,05,03,15,19,17.30
2006,05,03,15,20,17.30
2006,05,03,15,21,17.20
2006,05,03,15,22,17.20
2006,05,03,15,23,17.20
2006,05,03,15,24,17.30
2006,05,03,15,25,17.40
2006,05,03,15,26,17.40
2006,05,03,15,27,17.40
2006,05,03,15,28,17.50
2006,05,03,15,29,17.60
2006,05,03,15,30,17.60
2006,05,03,15,31,17.60
2006,05,03,15,32,17.70
2006,05,03,15,33,17.80
2006,05,03,15,34,17.80
2006,05,03,15,35,17.90
2006,05,03,15,36,18.00
2006,05,03,15,37,18.20
2006,05,03,15,38,18.40
2006,05,03,15,39,18.60
2006,05,03,15,40,18.80
2006,05,03,15,41,18.90
2006,05,03,15,42,19.00
2006,05,03,15,43,19.10
2006,05,03,15,44,19.20
2006,05,03,15,45,19.20
2006,05,03,15,46,19.10
2006,05,03,15,47,19.00
2006,05,03,15,48,18.90
2006,05,03,15,49,18.90
2006,05,03,15,50,18.80
2006,05,03,15,51,18.80
2006,05,03,15,52,18.80
2006,05,03,15,53,18.90
2006,05,03,15,54,18.90
2006,05,03,15,55,18.90
2006,05,03,15,56,18.80
2006,05,03,15,57,18.70
2006,05,03,15,58,18.60
2006,05,03,15,59,18.50
2006,05,03,16,00,18.50
2006,05,03,16,01,18.50
2006,05,03,16,02,18.40
2006,05,03,16,03,18.50
2006,05,03,16,04,18.50
2006,05,03,16,05,18.50
2006,05,03,16,06,18.50
2006,05,03,16,07,18.40
2006,05,03,16,08,18.40
2006,05,03,16,09,18.30
2006,05,03,16,10,18.30
2006,05,03,16,11,18.40
2006,05,03,16,12,18.30
2006,05,03,16,13,18.40
2006,05,03,16,14,18.40
2006,05,03,16,15,18.40
2006,05,03,16,16,18.50
2006,05,03,16,17,18.50
2006,05,03,16,18,18.50
2006,05,03,16,19,18.40
2006,05,03,16,20,18.50
2006,05,03,16,21,18.50
2006,05,03,16,22,18.50
2006,05,03,16,23,18.60
2006,05,03,16,24,18.70
2006,05,03,16,25,18.80
2006,05,03,16,26,18.90
2006,05,03,16,27,18.90
2006,05,03,16,28,18.90
2006,05,03,16,29,19.00
2006,05,03,16,30,19.10
2006,05,03,16,31,19.00
2006,05,03,16,32,18.90
2006,05,03,16,33,18.70
2006,05,03,16,34,18.60
2006,05,03,16,35,18.60
2006,05,03,16,36,18.60
2006,05,03,16,37,18.60
2006,05,03,16,38,18.60
2006,05,03,16,39,18.70
2006,05,03,16,40,18.70
2006,05,03,16,41,18.60
2006,05,03,16,42,18.60
2006,05,03,16,43,18.50
2006,05,03,16,44,18.40
2006,05,03,16,45,18.40
2006,05,03,16,46,18.40
2006,05,03,16,47,18.50
2006,05,03,16,48,18.50
2006,05,03,16,49,18.40
2006,05,03,16,50,18.40
2006,05,03,16,51,18.50
2006,05,03,16,52,18.60
2006,05,03,16,53,18.60
2006,05,03,16,54,18.70
2006,05,03,16,55,18.80
2006,05,03,16,56,18.80
2006,05,03,16,57,18.70
2006,05,03,16,58,18.60
2006,05,03,16,59,18.60
2006,05,03,17,00,18.60
2006,05,03,17,01,18.60
2006,05,03,17,02,18.70
2006,05,03,17,03,18.80
2006,05,03,17,04,18.70
2006,05,03,17,05,18.70
2006,05,03,17,06,18.80
2006,05,03,17,07,18.90
2006,05,03,17,08,18.90
2006,05,03,17,09,18.70
2006,05,03,17,10,18.70
2006,05,03,17,11,18.60
2006,05,03,17,12,18.60
2006,05,03,17,13,18.70
2006,05,03,17,14,18.70
2006,05,03,17,15,18.70
2006,05,03,17,16,18.70
2006,05,03,17,17,18.80
2006,05,03,17,18,18.80
2006,05,03,17,19,18.80
2006,05,03,17,20,18.90
2006,05,03,17,21,19.00
2006,05,03,17,22,19.10
2006,05,03,17,23,19.10
2006,05,03,17,24,19.00
2006,05,03,17,25,18.90
2006,05,03,17,26,18.90
2006,05,03,17,27,18.90
2006,05,03,17,28,18.90
2006,05,03,17,29,18.90
2006,05,03,17,30,18.90
2006,05,03,17,31,18.80
2006,05,03,17,32,18.80
2006,05,03,17,33,18.80
2006,05,03,17,34,18.90
2006,05,03,17,35,19.00
2006,05,03,17,36,19.10
2006,05,03,17,37,19.10
2006,05,03,17,38,19.10
2006,05,03,17,39,19.00
2006,05,03,17,40,18.90